This demonstration page uses our WeatherBlox Daily Observations layout. Learn more.

Left ArrowRight Arrow

36.17497, -115.13722

Hourly Observations for April 30, 2021

Temp ( °F °C ) Dew Point ( °F °C ) Humidity (%) Winds ( mph kmh ) Pressure ( in mb ) Visibility ( mi km ) Precip ( " mm )
12:53 am 00:53 Clear 71 21.7 27 -2.8 19 19 WNW 6 9 30.08 1019 10 16 N/A
1:53 am 01:53 Clear 72 22.2 24 -4.4 17 17 NW 9 15 30.06 1018 10 16 N/A
2:53 am 02:53 Clear 75 23.9 20 -6.7 12 12 NE 6 9 30.06 1018 10 16 N/A
3:53 am 03:53 Clear 75 23.9 21 -6.1 13 13 N 3 6 30.06 1018 10 16 N/A
4:53 am 04:53 Clear 69 20.6 21 -6.1 16 16 WNW 5 7 30.07 1018 10 16 N/A
5:53 am 05:53 Sunny 71 21.7 23 -5 16 16 WNW 9 15 30.07 1018 10 16 N/A
6:53 am 06:53 Sunny 71 21.7 24 -4.4 17 17 NW 8 13 30.09 1019 10 16 N/A
7:53 am 07:53 Sunny 77 25 29 -1.7 17 17 NNW 6 9 30.09 1019 10 16 N/A
8:53 am 08:53 Sunny 82 27.8 24 -4.4 12 12 N 3 6 30.08 1019 10 16 N/A
9:53 am 09:53 Sunny 87 30.6 24 -4.4 10 10 N N/A 30.07 1018 10 16 N/A
10:53 am 10:53 Sunny 88 31.1 24 -4.4 10 10 E 5 7 30.06 1018 10 16 N/A
11:53 am 11:53 Sunny 90 32.2 26 -3.3 10 10 N N/A 30.04 1017 10 16 N/A
12:53 pm 12:53 Sunny 91 32.8 26 -3.3 9 9 N N/A 30.01 1016 10 16 N/A
1:53 pm 13:53 Sunny 93 33.9 25 -3.9 8 8 WSW 3 6 29.96 1015 10 16 N/A
2:53 pm 14:53 Sunny 97 36.1 25 -3.9 7 7 NNW 6 9 29.92 1013 10 16 N/A
3:53 pm 15:53 Sunny 98 36.7 26 -3.3 8 8 E 9 15 29.88 1012 10 16 N/A
4:53 pm 16:53 Sunny 98 36.7 25 -3.9 7 7 E 7 11 29.86 1011 10 16 N/A
5:53 pm 17:53 Sunny 96 35.6 24 -4.4 7 7 S 3 6 29.84 1010 10 16 N/A
6:53 pm 18:53 Sunny 95 35 24 -4.4 8 8 ESE 3 6 29.83 1010 10 16 N/A
7:53 pm 19:53 Clear 92 33.3 25 -3.9 9 9 E 3 6 29.82 1010 10 16 N/A
8:53 pm 20:53 Clear 90 32.2 28 -2.2 11 11 N N/A 29.83 1010 10 16 N/A
9:53 pm 21:53 Clear 84 28.9 31 -0.6 15 15 W 5 7 29.84 1011 10 16 N/A
10:53 pm 22:53 Clear 81 27.2 32 undefined 17 17 WNW 6 9 29.83 1010 10 16 N/A
11:53 pm 23:53 Clear 79 26.1 31 -0.6 17 17 N N/A 29.82 1010 10 16 N/A

Powered by AerisWeather